User: anonymous   Login
Location: Unspecified
(0.0000°N, 0.0000°E)
Time: 02:55:53
(UTC+00:00)
Language:

STARLINK-4588 - Orbit

View from above orbital plane
View from above orbital plane
View from above satellite
View from above satellite

Ground track
Ground track

The orbit is defined by the following mean orbital elements,

1 53641U          26145.63731470 +.00000000 +00000-0 +13285-3 0 00003
2 53641  53.2137 238.5518 0001670  69.6529 290.4642 15.08852630    00
Epoch (UTC): 25 May 2026 15:17:43
Eccentricity: 0.0001670
inclination: 53.2137°
perigee height: 539 km
apogee height: 541 km
right ascension of ascending node: 238.5518°
argument of perigee: 69.6529°
revolutions per day: 15.08852630
mean anomaly at epoch: 290.4642°

The dashed part of the orbit path shows where the satellite is in the earth's shadow,  

DLR